Time,TemperatureF,DewpointF,PressureIn,WindDirection,WindDirectionDegrees,WindSpeedMPH,WindSpeedGustMPH,Humidity,HourlyPrecipIn,Conditions,Clouds,dailyrainin,SoftwareType,DateUTC
2013-08-11 00:00:00,64.0,32.0,24.11,ENE,60,4.0,5.0,24,-99.99,,,-99.99,meteohub,2013-08-11 06:00:00,
2013-08-11 00:07:00,63.1,32.0,24.11,ENE,60,0.0,5.0,24,-99.99,,,-99.99,meteohub,2013-08-11 06:07:00,
2013-08-11 00:12:00,62.8,32.0,24.11,ENE,60,3.0,5.0,24,-99.99,,,-99.99,meteohub,2013-08-11 06:12:00,
2013-08-11 00:17:00,63.0,32.0,24.11,ENE,60,4.0,5.0,24,-99.99,,,-99.99,meteohub,2013-08-11 06:17:00,
2013-08-11 00:23:00,62.8,32.0,24.11,ENE,60,4.0,5.0,24,-99.99,,,-99.99,meteohub,2013-08-11 06:23:00,
2013-08-11 00:28:00,62.4,31.8,24.11,ENE,59,4.0,5.0,24,-99.99,,,-99.99,meteohub,2013-08-11 06:28:00,
2013-08-11 00:34:00,62.4,31.8,24.11,ENE,57,3.0,5.0,24,-99.99,,,-99.99,meteohub,2013-08-11 06:34:00,
2013-08-11 00:39:00,63.0,31.8,24.11,East,94,3.0,5.0,24,-99.99,,,-99.99,meteohub,2013-08-11 06:39:00,
2013-08-11 00:44:00,63.1,31.8,24.11,East,90,0.0,5.0,24,-99.99,,,-99.99,meteohub,2013-08-11 06:44:00,
2013-08-11 00:49:00,63.0,31.6,24.11,ENE,68,2.0,5.0,24,-99.99,,,-99.99,meteohub,2013-08-11 06:49:00,
2013-08-11 00:55:00,63.0,31.6,24.11,ENE,78,2.0,5.0,24,-99.99,,,-99.99,meteohub,2013-08-11 06:55:00,
2013-08-11 01:00:00,62.6,31.6,24.11,NE,41,3.0,5.0,24,-99.99,,,-99.99,meteohub,2013-08-11 07:00:00,
2013-08-11 01:06:00,62.6,31.6,24.11,NNE,20,4.0,5.0,24,-99.99,,,-99.99,meteohub,2013-08-11 07:06:00,
2013-08-11 01:12:00,62.2,31.6,24.11,ENE,65,4.0,5.0,24,-99.99,,,-99.99,meteohub,2013-08-11 07:12:00,
2013-08-11 01:17:00,61.7,31.6,24.11,ENE,62,4.0,5.0,24,-99.99,,,-99.99,meteohub,2013-08-11 07:17:00,
2013-08-11 01:22:00,61.0,31.6,24.11,ENE,60,4.0,5.0,24,-99.99,,,-99.99,meteohub,2013-08-11 07:22:00,
2013-08-11 01:27:00,60.3,31.5,24.11,ENE,60,2.0,5.0,24,-99.99,,,-99.99,meteohub,2013-08-11 07:27:00,
2013-08-11 01:32:00,59.5,31.5,24.11,ENE,60,3.0,5.0,24,-99.99,,,-99.99,meteohub,2013-08-11 07:32:00,
2013-08-11 01:37:00,59.5,31.5,24.11,ENE,60,4.0,4.0,24,-99.99,,,-99.99,meteohub,2013-08-11 07:37:00,
2013-08-11 01:42:00,59.4,31.5,24.11,ENE,60,3.0,5.0,24,-99.99,,,-99.99,meteohub,2013-08-11 07:42:00,
2013-08-11 01:47:00,59.2,31.5,24.11,ENE,60,0.0,5.0,24,-99.99,,,-99.99,meteohub,2013-08-11 07:47:00,
2013-08-11 01:57:00,58.8,31.5,24.11,ENE,60,0.0,4.0,24,-99.99,,,-99.99,meteohub,2013-08-11 07:57:00,
2013-08-11 02:02:00,58.3,31.5,24.11,ENE,60,0.0,4.0,24,-99.99,,,-99.99,meteohub,2013-08-11 08:02:00,
2013-08-11 02:07:00,57.7,31.5,24.11,ENE,60,0.0,3.0,24,-99.99,,,-99.99,meteohub,2013-08-11 08:07:00,
2013-08-11 02:12:00,57.0,31.5,24.11,NNW,331,4.0,4.0,24,-99.99,,,-99.99,meteohub,2013-08-11 08:12:00,
2013-08-11 02:20:00,55.8,31.5,24.11,WNW,296,0.0,4.0,24,-99.99,,,-99.99,meteohub,2013-08-11 08:20:00,
2013-08-11 02:25:00,54.7,32.2,24.11,NW,311,0.0,4.0,25,-99.99,,,-99.99,meteohub,2013-08-11 08:25:00,
2013-08-11 02:30:00,53.1,32.2,24.11,NW,308,0.0,4.0,25,-99.99,,,-99.99,meteohub,2013-08-11 08:30:00,
2013-08-11 02:35:00,52.5,32.2,24.11,NW,324,4.0,4.0,25,-99.99,,,-99.99,meteohub,2013-08-11 08:35:00,
2013-08-11 02:41:00,52.0,32.2,24.11,NW,312,3.0,5.0,25,-99.99,,,-99.99,meteohub,2013-08-11 08:41:00,
2013-08-11 02:47:00,50.2,32.0,24.11,WNW,299,0.0,5.0,25,-99.99,,,-99.99,meteohub,2013-08-11 08:47:00,
2013-08-11 02:52:00,51.3,32.0,24.11,WNW,297,0.0,5.0,25,-99.99,,,-99.99,meteohub,2013-08-11 08:52:00,
2013-08-11 02:57:00,51.4,32.0,24.11,West,274,0.0,5.0,25,-99.99,,,-99.99,meteohub,2013-08-11 08:57:00,
2013-08-11 03:02:00,51.3,32.0,24.11,WSW,249,0.0,2.0,25,-99.99,,,-99.99,meteohub,2013-08-11 09:02:00,
2013-08-11 03:10:00,50.5,32.0,24.11,West,278,0.0,0.0,25,-99.99,,,-99.99,meteohub,2013-08-11 09:10:00,
2013-08-11 03:16:00,50.2,32.0,24.11,NW,319,0.0,0.0,25,-99.99,,,-99.99,meteohub,2013-08-11 09:16:00,
2013-08-11 03:22:00,49.5,32.0,24.11,NW,324,0.0,5.0,25,-99.99,,,-99.99,meteohub,2013-08-11 09:22:00,
2013-08-11 03:27:00,49.1,32.0,24.11,NW,324,0.0,5.0,25,-99.99,,,-99.99,meteohub,2013-08-11 09:27:00,
2013-08-11 03:35:00,49.3,31.8,24.11,NW,306,0.0,5.0,25,-99.99,,,-99.99,meteohub,2013-08-11 09:35:00,
2013-08-11 03:40:00,48.0,31.8,24.11,WNW,286,0.0,5.0,25,-99.99,,,-99.99,meteohub,2013-08-11 09:40:00,
2013-08-11 03:45:00,48.2,31.8,24.11,WSW,254,0.0,5.0,25,-99.99,,,-99.99,meteohub,2013-08-11 09:45:00,
2013-08-11 03:51:00,47.8,31.6,24.11,WSW,254,0.0,0.0,25,-99.99,,,-99.99,meteohub,2013-08-11 09:51:00,
2013-08-11 03:56:00,47.7,31.6,24.11,WSW,254,0.0,0.0,25,-99.99,,,-99.99,meteohub,2013-08-11 09:56:00,
2013-08-11 04:01:00,47.5,31.6,24.11,WSW,254,0.0,0.0,25,-99.99,,,-99.99,meteohub,2013-08-11 10:01:00,
2013-08-11 04:06:00,47.7,31.6,24.11,WSW,254,0.0,0.0,25,-99.99,,,-99.99,meteohub,2013-08-11 10:06:00,
2013-08-11 04:12:00,47.5,31.5,24.11,WSW,254,0.0,0.0,25,-99.99,,,-99.99,meteohub,2013-08-11 10:12:00,
2013-08-11 04:17:00,47.3,31.5,24.11,WNW,296,0.0,0.0,25,-99.99,,,-99.99,meteohub,2013-08-11 10:17:00,
2013-08-11 04:22:00,47.3,31.5,24.11,NW,308,3.0,0.0,25,-99.99,,,-99.99,meteohub,2013-08-11 10:22:00,
2013-08-11 04:27:00,47.1,31.3,24.11,WNW,295,2.0,0.0,25,-99.99,,,-99.99,meteohub,2013-08-11 10:27:00,
2013-08-11 04:33:00,46.9,31.3,24.11,WNW,296,0.0,3.0,25,-99.99,,,-99.99,meteohub,2013-08-11 10:33:00,
2013-08-11 04:40:00,46.8,31.3,24.11,WNW,296,0.0,3.0,25,-99.99,,,-99.99,meteohub,2013-08-11 10:40:00,
2013-08-11 04:47:00,46.4,31.1,24.11,WNW,296,0.0,3.0,25,-99.99,,,-99.99,meteohub,2013-08-11 10:47:00,
2013-08-11 04:55:00,46.2,31.1,24.11,WNW,296,0.0,0.0,25,-99.99,,,-99.99,meteohub,2013-08-11 10:55:00,
2013-08-11 05:00:00,45.9,31.1,24.11,NW,312,2.0,0.0,25,-99.99,,,-99.99,meteohub,2013-08-11 11:00:00,
2013-08-11 05:07:00,45.9,31.1,24.11,NW,312,3.0,4.0,25,-99.99,,,-99.99,meteohub,2013-08-11 11:07:00,
2013-08-11 05:12:00,45.3,31.1,24.11,West,280,0.0,4.0,25,-99.99,,,-99.99,meteohub,2013-08-11 11:12:00,
2013-08-11 05:18:00,45.3,31.1,24.11,NW,315,0.0,4.0,25,-99.99,,,-99.99,meteohub,2013-08-11 11:18:00,
2013-08-11 05:24:00,44.8,30.9,24.11,WNW,292,0.0,4.0,25,-99.99,,,-99.99,meteohub,2013-08-11 11:24:00,
2013-08-11 05:35:00,44.4,30.9,24.11,WNW,292,0.0,4.0,25,-99.99,,,-99.99,meteohub,2013-08-11 11:35:00,
2013-08-11 05:40:00,43.7,30.7,24.11,WNW,292,0.0,0.0,25,-99.99,,,-99.99,meteohub,2013-08-11 11:40:00,
2013-08-11 05:47:00,43.7,30.7,24.11,WNW,292,0.0,0.0,25,-99.99,,,-99.99,meteohub,2013-08-11 11:47:00,
2013-08-11 05:52:00,42.8,30.6,24.11,WNW,292,0.0,0.0,25,-99.99,,,-99.99,meteohub,2013-08-11 11:52:00,
2013-08-11 05:57:00,41.9,30.6,24.11,WNW,299,0.0,0.0,25,-99.99,,,-99.99,meteohub,2013-08-11 11:57:00,
2013-08-11 06:02:00,42.1,30.6,24.11,WNW,299,0.0,0.0,25,-99.99,,,-99.99,meteohub,2013-08-11 12:02:00,
2013-08-11 06:13:00,42.4,30.6,24.11,WNW,299,0.0,0.0,25,-99.99,,,-99.99,meteohub,2013-08-11 12:13:00,
2013-08-11 06:18:00,42.4,30.4,24.11,WNW,299,0.0,0.0,25,-99.99,,,-99.99,meteohub,2013-08-11 12:18:00,
2013-08-11 06:23:00,42.3,30.4,24.11,WNW,299,0.0,0.0,25,-99.99,,,-99.99,meteohub,2013-08-11 12:23:00,
2013-08-11 06:31:00,42.4,30.4,24.11,WNW,299,0.0,0.0,25,-99.99,,,-99.99,meteohub,2013-08-11 12:31:00,
2013-08-11 06:37:00,42.4,30.2,24.11,WNW,299,0.0,0.0,25,-99.99,,,-99.99,meteohub,2013-08-11 12:37:00,
2013-08-11 06:43:00,42.8,30.2,24.11,WNW,299,0.0,0.0,25,-99.99,,,-99.99,meteohub,2013-08-11 12:43:00,
2013-08-11 06:48:00,42.3,30.0,24.11,WNW,299,0.0,0.0,25,-99.99,,,-99.99,meteohub,2013-08-11 12:48:00,
2013-08-11 06:54:00,42.1,30.0,24.11,WNW,299,0.0,0.0,25,-99.99,,,-99.99,meteohub,2013-08-11 12:54:00,
2013-08-11 06:59:00,42.3,30.0,24.11,WNW,299,0.0,0.0,25,-99.99,,,-99.99,meteohub,2013-08-11 12:59:00,
2013-08-11 07:06:00,42.6,30.0,24.11,WNW,299,0.0,0.0,25,-99.99,,,-99.99,meteohub,2013-08-11 13:06:00,
2013-08-11 07:12:00,43.2,30.2,24.11,WNW,299,0.0,0.0,25,-99.99,,,-99.99,meteohub,2013-08-11 13:12:00,
2013-08-11 07:17:00,43.5,30.2,24.11,WNW,299,0.0,0.0,25,-99.99,,,-99.99,meteohub,2013-08-11 13:17:00,
2013-08-11 07:22:00,44.1,30.2,24.11,WNW,299,0.0,0.0,25,-99.99,,,-99.99,meteohub,2013-08-11 13:22:00,
2013-08-11 07:27:00,44.6,30.2,24.11,WNW,299,0.0,0.0,25,-99.99,,,-99.99,meteohub,2013-08-11 13:27:00,
2013-08-11 07:32:00,45.3,30.2,24.11,WNW,299,0.0,0.0,25,-99.99,,,-99.99,meteohub,2013-08-11 13:32:00,
2013-08-11 07:37:00,46.0,30.2,24.11,WNW,299,0.0,0.0,25,-99.99,,,-99.99,meteohub,2013-08-11 13:37:00,
2013-08-11 07:43:00,46.4,30.2,24.11,WNW,299,0.0,0.0,25,-99.99,,,-99.99,meteohub,2013-08-11 13:43:00,
2013-08-11 07:48:00,47.3,30.4,24.11,WNW,298,0.0,0.0,25,-99.99,,,-99.99,meteohub,2013-08-11 13:48:00,
2013-08-11 07:55:00,48.7,30.4,24.11,NNE,12,0.0,0.0,25,-99.99,,,-99.99,meteohub,2013-08-11 13:55:00,
2013-08-11 08:02:00,50.5,30.6,24.11,NE,54,0.0,0.0,25,-99.99,,,-99.99,meteohub,2013-08-11 14:02:00,
2013-08-11 08:07:00,51.4,30.6,24.11,NE,54,0.0,0.0,25,-99.99,,,-99.99,meteohub,2013-08-11 14:07:00,
2013-08-11 08:12:00,52.2,30.7,24.14,NE,54,0.0,0.0,25,-99.99,,,-99.99,meteohub,2013-08-11 14:12:00,
2013-08-11 08:17:00,53.1,30.7,24.14,NE,54,0.0,0.0,25,-99.99,,,-99.99,meteohub,2013-08-11 14:17:00,
2013-08-11 08:23:00,53.8,30.7,24.14,NE,54,0.0,0.0,25,-99.99,,,-99.99,meteohub,2013-08-11 14:23:00,
2013-08-11 08:29:00,54.9,30.7,24.14,NE,54,0.0,0.0,25,-99.99,,,-99.99,meteohub,2013-08-11 14:29:00,
2013-08-11 08:37:00,57.9,30.9,24.14,NE,54,0.0,0.0,25,-99.99,,,-99.99,meteohub,2013-08-11 14:37:00,
2013-08-11 08:42:00,59.0,30.9,24.14,NE,54,0.0,0.0,25,-99.99,,,-99.99,meteohub,2013-08-11 14:42:00,
2013-08-11 08:49:00,60.1,30.9,24.14,NE,54,0.0,0.0,25,-99.99,,,-99.99,meteohub,2013-08-11 14:49:00,
2013-08-11 08:55:00,61.7,31.1,24.14,NE,54,0.0,0.0,25,-99.99,,,-99.99,meteohub,2013-08-11 14:55:00,
2013-08-11 09:00:00,62.1,31.1,24.14,NE,54,0.0,0.0,25,-99.99,,,-99.99,meteohub,2013-08-11 15:00:00,
2013-08-11 09:05:00,63.7,31.1,24.14,NE,54,0.0,0.0,25,-99.99,,,-99.99,meteohub,2013-08-11 15:05:00,
2013-08-11 09:12:00,64.8,31.1,24.14,NE,54,0.0,0.0,25,-99.99,,,-99.99,meteohub,2013-08-11 15:12:00,
2013-08-11 09:17:00,65.7,31.1,24.14,NE,54,0.0,0.0,25,-99.99,,,-99.99,meteohub,2013-08-11 15:17:00,
2013-08-11 09:22:00,66.6,31.1,24.14,NE,54,0.0,0.0,25,-99.99,,,-99.99,meteohub,2013-08-11 15:22:00,
2013-08-11 09:27:00,67.1,31.3,24.14,NE,54,0.0,0.0,25,-99.99,,,-99.99,meteohub,2013-08-11 15:27:00,
2013-08-11 09:32:00,67.6,31.3,24.14,NE,54,0.0,0.0,25,-99.99,,,-99.99,meteohub,2013-08-11 15:32:00,
2013-08-11 09:40:00,67.8,31.3,24.14,NE,54,0.0,0.0,25,-99.99,,,-99.99,meteohub,2013-08-11 15:40:00,
2013-08-11 09:45:00,68.9,31.3,24.14,NE,54,0.0,4.0,25,-99.99,,,-99.99,meteohub,2013-08-11 15:45:00,
2013-08-11 09:50:00,70.0,31.3,24.14,NE,54,0.0,4.0,25,-99.99,,,-99.99,meteohub,2013-08-11 15:50:00,
2013-08-11 09:57:00,71.4,31.5,24.14,SE,145,0.0,0.0,25,-99.99,,,-99.99,meteohub,2013-08-11 15:57:00,
2013-08-11 10:02:00,71.8,31.5,24.14,SE,145,0.0,5.0,25,-99.99,,,-99.99,meteohub,2013-08-11 16:02:00,
2013-08-11 10:07:00,72.1,31.5,24.14,SE,144,0.0,5.0,25,-99.99,,,-99.99,meteohub,2013-08-11 16:07:00,
2013-08-11 10:12:00,72.7,31.6,24.14,SE,131,0.0,5.0,25,-99.99,,,-99.99,meteohub,2013-08-11 16:12:00,
2013-08-11 10:17:00,73.0,31.6,24.14,SSE,149,4.0,4.0,25,-99.99,,,-99.99,meteohub,2013-08-11 16:17:00,
2013-08-11 10:24:00,73.2,31.6,24.14,South,176,0.0,4.0,25,-99.99,,,-99.99,meteohub,2013-08-11 16:24:00,
2013-08-11 10:30:00,73.6,31.6,24.14,South,189,4.0,5.0,25,-99.99,,,-99.99,meteohub,2013-08-11 16:30:00,
2013-08-11 10:37:00,73.8,31.5,24.14,SSE,151,6.0,7.0,25,-99.99,,,-99.99,meteohub,2013-08-11 16:37:00,
2013-08-11 10:42:00,74.5,31.5,24.14,SE,145,4.0,7.0,25,-99.99,,,-99.99,meteohub,2013-08-11 16:42:00,
2013-08-11 10:47:00,74.7,31.5,24.14,ENE,74,4.0,8.0,25,-99.99,,,-99.99,meteohub,2013-08-11 16:47:00,
2013-08-11 10:52:00,75.2,31.5,24.14,SSE,153,3.0,8.0,25,-99.99,,,-99.99,meteohub,2013-08-11 16:52:00,
2013-08-11 10:59:00,75.6,31.6,24.14,SE,145,6.0,8.0,25,-99.99,,,-99.99,meteohub,2013-08-11 16:59:00,
2013-08-11 11:07:00,76.3,31.6,24.14,SSE,151,0.0,6.0,25,-99.99,,,-99.99,meteohub,2013-08-11 17:07:00,
2013-08-11 11:12:00,76.6,31.6,24.14,SSE,167,4.0,9.0,25,-99.99,,,-99.99,meteohub,2013-08-11 17:12:00,
2013-08-11 11:17:00,77.2,31.6,24.14,SSE,151,3.0,9.0,25,-99.99,,,-99.99,meteohub,2013-08-11 17:17:00,
2013-08-11 11:23:00,77.4,31.6,24.14,SSE,150,4.0,9.0,25,-99.99,,,-99.99,meteohub,2013-08-11 17:23:00,
2013-08-11 11:31:00,77.9,31.6,24.14,SE,142,4.0,9.0,25,-99.99,,,-99.99,meteohub,2013-08-11 17:31:00,
2013-08-11 11:37:00,77.7,31.6,24.14,South,173,3.0,8.0,25,-99.99,,,-99.99,meteohub,2013-08-11 17:37:00,
2013-08-11 11:42:00,77.4,31.6,24.14,SE,130,5.0,8.0,25,-99.99,,,-99.99,meteohub,2013-08-11 17:42:00,
2013-08-11 11:49:00,77.7,31.6,24.14,SE,135,6.0,8.0,25,-99.99,,,-99.99,meteohub,2013-08-11 17:49:00,
2013-08-11 11:55:00,78.4,31.6,24.14,SSE,167,6.0,10.0,25,-99.99,,,-99.99,meteohub,2013-08-11 17:55:00,
2013-08-11 12:00:00,78.4,31.8,24.14,SSE,163,4.0,10.0,25,-99.99,,,-99.99,meteohub,2013-08-11 18:00:00,
2013-08-11 12:05:00,78.4,31.8,24.14,SSE,151,6.0,10.0,25,-99.99,,,-99.99,meteohub,2013-08-11 18:05:00,
2013-08-11 12:11:00,79.2,31.8,24.14,ESE,112,8.0,8.0,25,-99.99,,,-99.99,meteohub,2013-08-11 18:11:00,
2013-08-11 12:16:00,79.5,31.8,24.14,SE,136,5.0,8.0,25,-99.99,,,-99.99,meteohub,2013-08-11 18:16:00,
2013-08-11 12:21:00,79.5,31.8,24.14,South,180,6.0,8.0,25,-99.99,,,-99.99,meteohub,2013-08-11 18:21:00,
2013-08-11 12:27:00,79.7,31.8,24.11,SSE,167,4.0,8.0,25,-99.99,,,-99.99,meteohub,2013-08-11 18:27:00,
2013-08-11 12:32:00,79.5,31.8,24.11,South,177,8.0,8.0,25,-99.99,,,-99.99,meteohub,2013-08-11 18:32:00,
2013-08-11 12:37:00,79.9,31.8,24.11,SSE,163,8.0,9.0,25,-99.99,,,-99.99,meteohub,2013-08-11 18:37:00,
2013-08-11 12:45:00,79.9,31.8,24.11,SE,137,4.0,9.0,25,-99.99,,,-99.99,meteohub,2013-08-11 18:45:00,
2013-08-11 12:52:00,77.2,31.8,24.11,South,178,6.0,12.0,25,-99.99,,,-99.99,meteohub,2013-08-11 18:52:00,
2013-08-11 12:57:00,76.8,32.0,24.11,South,174,6.0,12.0,25,-99.99,,,-99.99,meteohub,2013-08-11 18:57:00,
2013-08-11 13:05:00,77.9,32.0,24.11,SW,218,5.0,12.0,25,-99.99,,,-99.99,meteohub,2013-08-11 19:05:00,
2013-08-11 13:10:00,76.8,32.0,24.11,South,182,9.0,11.0,25,-99.99,,,-99.99,meteohub,2013-08-11 19:10:00,
2013-08-11 13:15:00,78.4,32.0,24.11,South,188,6.0,11.0,25,-99.99,,,-99.99,meteohub,2013-08-11 19:15:00,
2013-08-11 13:20:00,78.8,32.0,24.11,South,171,6.0,11.0,25,-99.99,,,-99.99,meteohub,2013-08-11 19:20:00,
2013-08-11 13:27:00,80.1,32.0,24.11,SW,224,5.0,11.0,25,-99.99,,,-99.99,meteohub,2013-08-11 19:27:00,
2013-08-11 13:32:00,79.5,32.0,24.11,SSE,164,6.0,12.0,25,-99.99,,,-99.99,meteohub,2013-08-11 19:32:00,
2013-08-11 13:40:00,79.5,32.0,24.11,South,174,4.0,12.0,25,-99.99,,,-99.99,meteohub,2013-08-11 19:40:00,
2013-08-11 13:45:00,79.9,32.0,24.11,SSW,201,5.0,12.0,25,-99.99,,,-99.99,meteohub,2013-08-11 19:45:00,
2013-08-11 13:50:00,80.4,32.0,24.11,SSW,209,8.0,13.0,25,-99.99,,,-99.99,meteohub,2013-08-11 19:50:00,
2013-08-11 13:55:00,81.3,32.0,24.11,SSE,168,4.0,13.0,25,-99.99,,,-99.99,meteohub,2013-08-11 19:55:00,
2013-08-11 14:01:00,81.9,32.2,24.11,SE,143,8.0,11.0,25,-99.99,,,-99.99,meteohub,2013-08-11 20:01:00,
2013-08-11 14:07:00,81.7,32.2,24.11,South,176,4.0,11.0,25,-99.99,,,-99.99,meteohub,2013-08-11 20:07:00,
2013-08-11 14:12:00,80.8,32.2,24.11,South,171,4.0,11.0,25,-99.99,,,-99.99,meteohub,2013-08-11 20:12:00,
2013-08-11 14:17:00,81.7,32.2,24.11,South,169,11.0,13.0,25,-99.99,,,-99.99,meteohub,2013-08-11 20:17:00,
2013-08-11 14:25:00,81.3,31.5,24.11,SSW,193,5.0,13.0,24,-99.99,,,-99.99,meteohub,2013-08-11 20:25:00,
2013-08-11 14:30:00,82.0,31.5,24.11,South,169,8.0,13.0,24,-99.99,,,-99.99,meteohub,2013-08-11 20:30:00,
2013-08-11 14:37:00,81.5,31.5,24.11,South,189,6.0,11.0,24,-99.99,,,-99.99,meteohub,2013-08-11 20:37:00,
2013-08-11 14:42:00,81.0,31.5,24.11,SSW,205,12.0,12.0,24,-99.99,,,-99.99,meteohub,2013-08-11 20:42:00,
2013-08-11 14:47:00,81.5,31.5,24.11,SSE,164,11.0,15.0,24,-99.99,,,-99.99,meteohub,2013-08-11 20:47:00,
2013-08-11 14:52:00,81.9,31.5,24.11,SSE,166,9.0,19.0,24,-99.99,,,-99.99,meteohub,2013-08-11 20:52:00,
2013-08-11 14:57:00,82.2,31.5,24.08,South,185,6.0,19.0,24,-99.99,,,-99.99,meteohub,2013-08-11 20:57:00,
2013-08-11 15:02:00,81.5,31.5,24.08,SSE,166,8.0,19.0,24,-99.99,,,-99.99,meteohub,2013-08-11 21:02:00,
2013-08-11 15:07:00,81.9,31.6,24.08,SSE,158,8.0,11.0,24,-99.99,,,-99.99,meteohub,2013-08-11 21:07:00,
2013-08-11 15:12:00,82.6,31.6,24.08,South,170,13.0,13.0,24,-99.99,,,-99.99,meteohub,2013-08-11 21:12:00,
2013-08-11 15:18:00,82.6,31.6,24.08,SSE,167,8.0,12.0,24,-99.99,,,-99.99,meteohub,2013-08-11 21:18:00,
2013-08-11 15:27:00,81.7,31.6,24.08,SSW,211,11.0,13.0,24,-99.99,,,-99.99,meteohub,2013-08-11 21:27:00,
2013-08-11 15:32:00,81.5,31.6,24.08,South,175,6.0,16.0,24,-99.99,,,-99.99,meteohub,2013-08-11 21:32:00,
2013-08-11 15:37:00,81.5,31.6,24.08,SSW,192,8.0,16.0,24,-99.99,,,-99.99,meteohub,2013-08-11 21:37:00,
2013-08-11 15:42:00,79.2,31.6,24.08,South,186,7.0,11.0,24,-99.99,,,-99.99,meteohub,2013-08-11 21:42:00,
2013-08-11 15:47:00,79.5,31.6,24.08,SE,146,8.0,11.0,24,-99.99,,,-99.99,meteohub,2013-08-11 21:47:00,
2013-08-11 15:52:00,79.5,31.6,24.08,South,177,8.0,11.0,24,-99.99,,,-99.99,meteohub,2013-08-11 21:52:00,
2013-08-11 15:57:00,81.3,31.8,24.08,South,188,5.0,17.0,24,-99.99,,,-99.99,meteohub,2013-08-11 21:57:00,
2013-08-11 16:03:00,80.2,30.7,24.08,SSE,160,5.0,17.0,23,-99.99,,,-99.99,meteohub,2013-08-11 22:03:00,
2013-08-11 16:08:00,79.5,30.9,24.08,South,171,8.0,11.0,23,-99.99,,,-99.99,meteohub,2013-08-11 22:08:00,
2013-08-11 16:14:00,79.0,30.9,24.08,South,176,7.0,11.0,23,-99.99,,,-99.99,meteohub,2013-08-11 22:14:00,
2013-08-11 16:19:00,81.1,30.9,24.08,South,184,6.0,13.0,23,-99.99,,,-99.99,meteohub,2013-08-11 22:19:00,
2013-08-11 16:25:00,81.1,30.9,24.08,SSW,192,4.0,13.0,23,-99.99,,,-99.99,meteohub,2013-08-11 22:25:00,
2013-08-11 16:31:00,81.5,30.9,24.08,South,185,8.0,15.0,23,-99.99,,,-99.99,meteohub,2013-08-11 22:31:00,
2013-08-11 16:36:00,79.5,30.9,24.08,South,181,8.0,15.0,23,-99.99,,,-99.99,meteohub,2013-08-11 22:36:00,
2013-08-11 16:41:00,81.1,30.9,24.08,SSE,152,6.0,10.0,23,-99.99,,,-99.99,meteohub,2013-08-11 22:41:00,
2013-08-11 16:46:00,81.0,30.9,24.08,South,181,6.0,10.0,23,-99.99,,,-99.99,meteohub,2013-08-11 22:46:00,
2013-08-11 16:52:00,79.3,31.1,24.08,SW,235,8.0,14.0,23,-99.99,,,-99.99,meteohub,2013-08-11 22:52:00,
2013-08-11 16:57:00,79.0,31.1,24.05,South,187,6.0,14.0,23,-99.99,,,-99.99,meteohub,2013-08-11 22:57:00,
2013-08-11 17:02:00,77.9,31.1,24.05,South,175,5.0,14.0,23,-99.99,,,-99.99,meteohub,2013-08-11 23:02:00,
2013-08-11 17:11:00,77.7,31.3,24.05,SW,216,4.0,14.0,23,-99.99,,,-99.99,meteohub,2013-08-11 23:11:00,
2013-08-11 17:16:00,79.5,31.3,24.08,South,189,5.0,9.0,23,-99.99,,,-99.99,meteohub,2013-08-11 23:16:00,
2013-08-11 17:22:00,82.4,31.3,24.08,SW,230,8.0,11.0,23,-99.99,,,-99.99,meteohub,2013-08-11 23:22:00,
2013-08-11 17:27:00,81.9,31.3,24.08,WSW,246,6.0,11.0,23,-99.99,,,-99.99,meteohub,2013-08-11 23:27:00,
2013-08-11 17:32:00,82.2,31.3,24.08,SW,219,8.0,12.0,23,-99.99,,,-99.99,meteohub,2013-08-11 23:32:00,
2013-08-11 17:37:00,82.0,31.3,24.08,WSW,243,8.0,12.0,23,-99.99,,,-99.99,meteohub,2013-08-11 23:37:00,
2013-08-11 17:43:00,81.0,31.3,24.08,South,173,4.0,11.0,23,-99.99,,,-99.99,meteohub,2013-08-11 23:43:00,
2013-08-11 17:48:00,82.0,31.5,24.08,South,184,5.0,10.0,23,-99.99,,,-99.99,meteohub,2013-08-11 23:48:00,
2013-08-11 17:56:00,81.7,31.5,24.08,South,182,4.0,9.0,23,-99.99,,,-99.99,meteohub,2013-08-11 23:56:00,
2013-08-11 18:01:00,81.9,31.5,24.08,South,176,4.0,8.0,23,-99.99,,,-99.99,meteohub,2013-08-12 00:01:00,
2013-08-11 18:07:00,80.8,31.5,24.08,SE,139,4.0,8.0,23,-99.99,,,-99.99,meteohub,2013-08-12 00:07:00,
2013-08-11 18:12:00,81.0,31.5,24.08,SSE,153,8.0,8.0,23,-99.99,,,-99.99,meteohub,2013-08-12 00:12:00,
2013-08-11 18:17:00,80.2,31.5,24.08,SSW,201,5.0,11.0,23,-99.99,,,-99.99,meteohub,2013-08-12 00:17:00,
2013-08-11 18:23:00,79.9,31.5,24.08,SSE,162,5.0,11.0,23,-99.99,,,-99.99,meteohub,2013-08-12 00:23:00,
2013-08-11 18:28:00,78.1,31.5,24.08,SSE,160,8.0,11.0,23,-99.99,,,-99.99,meteohub,2013-08-12 00:28:00,
2013-08-11 18:33:00,77.9,31.5,24.08,South,185,6.0,11.0,23,-99.99,,,-99.99,meteohub,2013-08-12 00:33:00,
2013-08-11 18:40:00,79.0,31.5,24.08,SE,134,8.0,11.0,23,-99.99,,,-99.99,meteohub,2013-08-12 00:40:00,
2013-08-11 18:49:00,79.0,31.6,24.08,SSW,200,5.0,11.0,23,-99.99,,,-99.99,meteohub,2013-08-12 00:49:00,
2013-08-11 18:54:00,78.6,31.6,24.08,SSE,165,6.0,11.0,23,-99.99,,,-99.99,meteohub,2013-08-12 00:54:00,
2013-08-11 19:01:00,78.6,31.6,24.08,SE,146,6.0,11.0,23,-99.99,,,-99.99,meteohub,2013-08-12 01:01:00,
2013-08-11 19:06:00,77.9,31.8,24.08,SSE,168,5.0,11.0,23,-99.99,,,-99.99,meteohub,2013-08-12 01:06:00,
2013-08-11 19:13:00,77.9,31.8,24.08,SSE,156,8.0,11.0,23,-99.99,,,-99.99,meteohub,2013-08-12 01:13:00,
2013-08-11 19:18:00,77.7,31.8,24.08,SE,137,5.0,12.0,23,-99.99,,,-99.99,meteohub,2013-08-12 01:18:00,
2013-08-11 19:25:00,77.4,31.8,24.08,SE,128,8.0,9.0,23,-99.99,,,-99.99,meteohub,2013-08-12 01:25:00,
2013-08-11 19:32:00,76.6,31.8,24.08,ESE,115,4.0,9.0,23,-99.99,,,-99.99,meteohub,2013-08-12 01:32:00,
2013-08-11 19:38:00,75.4,31.8,24.08,SE,126,4.0,8.0,23,-99.99,,,-99.99,meteohub,2013-08-12 01:38:00,
2013-08-11 19:43:00,74.7,31.8,24.08,East,86,3.0,8.0,23,-99.99,,,-99.99,meteohub,2013-08-12 01:43:00,
2013-08-11 19:52:00,74.5,31.8,24.08,NE,52,5.0,8.0,23,-99.99,,,-99.99,meteohub,2013-08-12 01:52:00,
2013-08-11 19:57:00,73.8,31.8,24.08,West,260,4.0,5.0,23,-99.99,,,-99.99,meteohub,2013-08-12 01:57:00,
2013-08-11 20:02:00,72.9,32.0,24.08,East,98,5.0,8.0,23,-99.99,,,-99.99,meteohub,2013-08-12 02:02:00,
2013-08-11 20:07:00,72.3,32.0,24.08,North,10,5.0,8.0,23,-99.99,,,-99.99,meteohub,2013-08-12 02:07:00,
2013-08-11 20:12:00,71.8,32.0,24.08,ENE,74,3.0,8.0,23,-99.99,,,-99.99,meteohub,2013-08-12 02:12:00,
2013-08-11 20:17:00,71.6,32.0,24.08,NW,318,4.0,8.0,23,-99.99,,,-99.99,meteohub,2013-08-12 02:17:00,
2013-08-11 20:22:00,71.1,32.0,24.08,ESE,104,6.0,8.0,23,-99.99,,,-99.99,meteohub,2013-08-12 02:22:00,
2013-08-11 20:28:00,70.5,32.0,24.08,NNE,23,8.0,11.0,23,-99.99,,,-99.99,meteohub,2013-08-12 02:28:00,
2013-08-11 20:35:00,70.2,31.8,24.08,SSW,213,4.0,9.0,23,-99.99,,,-99.99,meteohub,2013-08-12 02:35:00,
2013-08-11 20:42:00,69.8,31.8,24.08,NNE,17,4.0,9.0,23,-99.99,,,-99.99,meteohub,2013-08-12 02:42:00,
2013-08-11 20:53:00,68.9,31.8,24.08,ENE,57,6.0,11.0,23,-99.99,,,-99.99,meteohub,2013-08-12 02:53:00,
2013-08-11 20:58:00,68.4,31.8,24.08,NNE,23,8.0,8.0,23,-99.99,,,-99.99,meteohub,2013-08-12 02:58:00,
2013-08-11 21:06:00,68.2,31.8,24.08,North,357,4.0,8.0,23,-99.99,,,-99.99,meteohub,2013-08-12 03:06:00,
2013-08-11 21:11:00,68.0,31.8,24.11,ENE,62,6.0,9.0,23,-99.99,,,-99.99,meteohub,2013-08-12 03:11:00,
2013-08-11 21:17:00,67.6,31.8,24.11,NNE,21,8.0,9.0,23,-99.99,,,-99.99,meteohub,2013-08-12 03:17:00,
2013-08-11 21:22:00,67.5,31.8,24.11,North,357,5.0,10.0,23,-99.99,,,-99.99,meteohub,2013-08-12 03:22:00,
2013-08-11 21:27:00,67.3,31.8,24.11,NNE,33,4.0,10.0,23,-99.99,,,-99.99,meteohub,2013-08-12 03:27:00,
2013-08-11 21:32:00,66.9,31.6,24.11,NE,55,5.0,9.0,23,-99.99,,,-99.99,meteohub,2013-08-12 03:32:00,
2013-08-11 21:37:00,66.9,31.6,24.11,NE,39,6.0,10.0,23,-99.99,,,-99.99,meteohub,2013-08-12 03:37:00,
2013-08-11 21:45:00,66.7,31.6,24.11,North,6,4.0,10.0,23,-99.99,,,-99.99,meteohub,2013-08-12 03:45:00,
2013-08-11 21:52:00,66.4,31.6,24.11,NE,40,4.0,10.0,23,-99.99,,,-99.99,meteohub,2013-08-12 03:52:00,
2013-08-11 22:00:00,66.2,31.6,24.11,East,84,4.0,10.0,23,-99.99,,,-99.99,meteohub,2013-08-12 04:00:00,
2013-08-11 22:01:00,66.0,31.6,24.11,East,79,3.0,8.0,23,-99.99,,,-99.99,meteohub,2013-08-12 04:01:00,
2013-08-11 22:02:00,66.0,31.6,24.11,North,3,4.0,8.0,23,-99.99,,,-99.99,meteohub,2013-08-12 04:02:00,
2013-08-11 22:03:00,66.0,31.6,24.11,ENE,68,5.0,8.0,23,-99.99,,,-99.99,meteohub,2013-08-12 04:03:00,
2013-08-11 22:08:00,65.7,31.6,24.11,ENE,61,4.0,8.0,23,-99.99,,,-99.99,meteohub,2013-08-12 04:08:00,
2013-08-11 22:13:00,65.5,31.6,24.11,East,88,3.0,6.0,23,-99.99,,,-99.99,meteohub,2013-08-12 04:13:00,
2013-08-11 22:18:00,64.9,31.5,24.11,NNE,12,4.0,6.0,23,-99.99,,,-99.99,meteohub,2013-08-12 04:18:00,
2013-08-11 22:24:00,64.8,31.5,24.11,WNW,299,4.0,6.0,23,-99.99,,,-99.99,meteohub,2013-08-12 04:24:00,
2013-08-11 22:29:00,64.8,31.5,24.11,NE,45,3.0,6.0,23,-99.99,,,-99.99,meteohub,2013-08-12 04:29:00,
2013-08-11 22:34:00,64.6,31.5,24.11,NE,36,4.0,6.0,23,-99.99,,,-99.99,meteohub,2013-08-12 04:34:00,
2013-08-11 22:39:00,64.4,31.5,24.11,NE,45,5.0,6.0,23,-99.99,,,-99.99,meteohub,2013-08-12 04:39:00,
2013-08-11 22:44:00,64.2,31.5,24.11,North,10,3.0,6.0,23,-99.99,,,-99.99,meteohub,2013-08-12 04:44:00,
2013-08-11 22:50:00,64.2,31.5,24.11,NE,45,3.0,6.0,23,-99.99,,,-99.99,meteohub,2013-08-12 04:50:00,
2013-08-11 22:55:00,64.0,31.5,24.11,ENE,69,4.0,8.0,23,-99.99,,,-99.99,meteohub,2013-08-12 04:55:00,
2013-08-11 23:00:00,63.9,31.5,24.11,North,357,4.0,8.0,23,-99.99,,,-99.99,meteohub,2013-08-12 05:00:00,
2013-08-11 23:05:00,63.7,31.5,24.11,East,90,4.0,8.0,23,-99.99,,,-99.99,meteohub,2013-08-12 05:05:00,
2013-08-11 23:10:00,63.7,31.5,24.11,NE,49,2.0,6.0,23,-99.99,,,-99.99,meteohub,2013-08-12 05:10:00,
2013-08-11 23:16:00,63.3,31.3,24.11,ENE,77,4.0,6.0,23,-99.99,,,-99.99,meteohub,2013-08-12 05:16:00,
2013-08-11 23:21:00,63.0,31.3,24.11,North,353,3.0,6.0,23,-99.99,,,-99.99,meteohub,2013-08-12 05:21:00,
2013-08-11 23:26:00,63.0,31.3,24.11,ENE,59,4.0,6.0,23,-99.99,,,-99.99,meteohub,2013-08-12 05:26:00,
2013-08-11 23:31:00,62.6,31.3,24.11,North,5,3.0,6.0,23,-99.99,,,-99.99,meteohub,2013-08-12 05:31:00,
2013-08-11 23:36:00,62.4,31.1,24.11,ENE,66,5.0,6.0,23,-99.99,,,-99.99,meteohub,2013-08-12 05:36:00,
2013-08-11 23:41:00,62.2,31.1,24.11,ENE,68,3.0,6.0,23,-99.99,,,-99.99,meteohub,2013-08-12 05:41:00,
2013-08-11 23:47:00,62.2,31.1,24.11,ENE,64,3.0,6.0,23,-99.99,,,-99.99,meteohub,2013-08-12 05:47:00,
2013-08-11 23:52:00,62.2,31.1,24.11,ENE,59,5.0,6.0,23,-99.99,,,-99.99,meteohub,2013-08-12 05:52:00,
2013-08-11 23:57:00,62.2,31.1,24.11,East,84,5.0,6.0,23,-99.99,,,-99.99,meteohub,2013-08-12 05:57:00,